OKEAN-0
1 25860U 99039A 12095.95518921 .00000563 00000-0 92830-4 0 06108
2 25860 097.9272 060.1329 0001739 092.6674 267.4733 14.74139154683787
NOAA-16
1 26536U 00055A 12095.80541095 .00000406 00000-0 24353-3 0 06976
2 26536 099.1030 136.7669 0009792 290.8196 069.1921 14.12721699594677
NOAA-17
1 27453U 02032A 12095.82866294 .00000249 00000-0 12512-3 0 06592
2 27453 098.3439 126.5487 0012008 016.8908 343.2661 14.24412180508314
NOAA-18
1 28654U 05018A 12095.91905419 .00000312 00000-0 19659-3 0 01355
2 28654 099.0385 053.4256 0014474 004.5081 355.6207 14.11629299354222
NOAA-19
1 33591U 09005A 12095.83957690 -.00000015 00000-0 15864-4 0 03268
2 33591 098.8588 036.5570 0013311 226.9910 133.0158 14.11314611162668
HUBBLE
1 20580U 90037B 12095.78878554 .00002147 00000-0 14605-3 0 9750
2 20580 028.4704 263.8165 0003588 002.1668 357.8931 15.02341240 3685
ISS
1 25544U 98067A 12096.99652534 .00016430 00000-0 22021-3 0 3135
2 25544 051.6394 123.7868 0008274 250.1209 204.3274 15.58087733766766
CO-58
1 28895U 05043F 12095.64450110 .00000625 00000-0 13767-3 0 01411
2 28895 097.9242 325.1113 0018233 026.0735 334.1347 14.60546932342928
FALCON
1 30776U 07006E 12095.93021944 .00004395 00000-0 29018-3 0 03331
2 30776 035.4333 004.1098 0001241 064.5562 295.5282 15.06998714279195
MAST
1 31126U 07012K 12095.93940368 .00000729 00000-0 17324-3 0 04311
2 31126 097.8770 111.3197 0093819 339.7241 020.0253 14.54091903263622
CAPE1
1 31130U 07012P 12095.50021847 .00000994 00000-0 23649-3 0 04367
2 31130 097.8855 107.3360 0101256 353.9049 006.0934 14.52846646263076
COMPASS
1 32787U 08021E 12095.83689649 .00002142 00000-0 26510-3 0 02694
2 32787 097.8076 158.7849 0014485 303.1137 056.8675 14.83704717212934
AAUSAT2
1 32788U 08021F 12095.61959079 .00002846 00000-0 34769-3 0 02605
2 32788 097.8088 158.9160 0013403 304.0015 055.9979 14.84003364212927
DO-64
1 32789U 08021G 12095.73591654 .00004052 00000-0 47724-3 0 02752
2 32789 097.8191 160.7845 0013576 300.4545 059.5429 14.85281878212977
CO-66
1 32791U 08021J 12095.66400094 .00001722 00000-0 21705-3 0 02633
2 32791 097.8068 158.4124 0014856 304.4004 055.5883 14.83173418212847
RS-30
1 32953U 08025A 12096.60906319 .00000010 00000-0 00000 0 0 6738
2 32953 082.5060 340.2793 0019547 103.9585 256.3675 12.43021994175541
TACSAT-3
1 35001U 09028A 12096.54996421 .00287933 36542-4 90917-3 0 9328
2 35001 040.4450 157.3964 0013301 092.3335 267.9020 15.90294601162952
PHARMSAT
1 35002U 09028B 12095.56602056 .00081135 00000-0 62228-3 0 08514
2 35002 040.4608 173.8729 0002306 327.0716 032.9965 15.71033690162691
METEOR-M
1 35865U 09049A 12096.59763274 -.00000011 00000-0 14555-4 0 2967
2 35865 098.6623 152.2574 0001624 268.2783 091.8219 14.21858726132288
RS-38
1 35869U 09049E 12096.55897199 .00000028 00000-0 32463-4 0 3068
2 35869 098.6583 152.2267 0003739 264.6072 095.4683 14.22061882132292
JUGNU
1 37839U 11058B 12095.32477040 .00000620 00000-0 19019-3 0 01239
2 37839 019.9600 085.6726 0019495 126.3596 233.8582 14.12039460024794
SRMSAT
1 37841U 11058D 12095.34962776 .00000264 00000-0 00000-0 0 01230
2 37841 019.9727 088.9725 0011749 101.1213 259.0705 14.10126571024765
RAX-2
1 37853U 11061D 12095.95485620 .00002939 00000-0 24313-3 0 01554
2 37853 101.7182 102.8330 0249538 199.5452 159.6048 14.79301897023570
AUBIESAT
1 37854U 11061E 12095.92728204 .00003553 00000-0 28654-3 0 01544
2 37854 101.7182 102.9488 0251263 198.9272 160.2466 14.79633888023555
HRBE
1 37855U 11061F 12095.93455031 .00003427 00000-0 27718-3 0 01552
2 37855 101.7197 102.9349 0251687 198.9776 160.1929 14.79520111023554
RS-39
1 38051U 11062C 12096.52760373 .00007804 00000-0 34004-3 0 2185
2 38051 051.6381 145.7740 0010877 133.7813 007.5461 15.23061651 10891
E-STAR
1 38079U 12006C 12096.16205389 .00049964 00000-0 12544-2 0 1271
2 38079 069.4831 121.9929 0767155 339.7252 017.4656 14.09391724 7270
GOLIAT
1 38085U 12006J 12096.46343182 .00048927 00000-0 12538-2 0 1243
2 38085 069.4860 121.3796 0768018 339.3195 017.8312 14.08792186 7310
